Location: Unspecified
(50.7693°N, 0.0000°E)
Time: 06:09:11
(UTC+00:00)

Transit 2A Rocket - Pass Details

Date: 01 November 2019
Orbit: 594 x 909 km, 66.7° (Epoch: 11 November)

Event Time Altitude Azimuth Distance (km) Brightness Sun altitude
Exits shadow 03:39:21 19° 15° (NNE) 1,485 6.7 -30.5°
Drops below altitude 10° 03:40:51 10° 26° (NNE) 1,994 7.6 -30.3°
Sets 03:43:12 0° 35° (NE) 2,876 8.7 -29.9°
